Location: L�beck
(53.8752°N, 10.6787°E)
Time: 03:35:57
(UTC+02:00)

ISS - Visible Passes

Search period start: 21 September 2017 00:00
Search period end: 01 October 2017 00:00
Orbit: 402 x 407 km, 51.6° (Epoch: 21 September)

Date Brightness Start Highest point End Pass type
(mag) Time Alt. Az. Time Alt. Az. Time Alt. Az.
26 Sep -1.5 20:29:06 10° S 20:29:45 12° SSE 20:29:45 12° SSE visible
27 Sep -1.8 21:11:17 10° SW 21:12:33 19° SSW 21:12:33 19° SSW visible
28 Sep -2.3 20:19:25 10° SSW 20:21:57 21° SSE 20:22:31 20° SE visible
28 Sep -1.0 21:54:47 10° WSW 21:55:11 13° WSW 21:55:11 13° WSW visible
29 Sep -2.9 21:02:33 10° SW 21:05:01 36° SSW 21:05:01 36° SSW visible
30 Sep -2.8 20:10:23 10° SW 20:13:21 31° SSE 20:14:44 22° ESE visible
30 Sep -1.4 21:46:17 10° WSW 21:47:23 19° WSW 21:47:23 19° WSW visible
